Preview of NWS' New Version of Forecast
This preview is not operational and should not be used for support decisions.

Regional Weather Roundup (RWR)

Issued by National Weather Service (NWS)

                            
000
ASPQ40 PGUM 212310
RWRPQ 
WEATHER ROUNDUP FOR THE MARIANAS AND MICRONESIA
NATIONAL WEATHER SERVICE TIYAN GU
900 AM CHST MON APR 22 2019

GUZ001>004-220000-
MARIANA ISLANDS-
  
CITY           SKY/WX    TMP DP  RH WIND       PRES   REMARKS
GUAM AIRPORT   PTSUNNY   84  73  70 NE14      29.93R HX  91           
ANDERSEN AFB   PTSUNNY   84  75  74 E14       29.94R HX  92           
ROTA AIRPORT   MOSUNNY   81  73  78 E17       29.93R                  
TINIAN AP      MOSUNNY   86  75  70 E9        29.92R HX  95           
SAIPAN AP      MOSUNNY   84  75  74 E14       29.93R HX  92           

$$

PMZ161-220000-
REPUBLIC OF PALAU-
  
CITY           SKY/WX    TMP DP  RH WIND       PRES   REMARKS
KOROR AP       PTSUNNY   82  75  78 NE10G18   29.83R                  
KOROR WSO      NOT AVBL                                               

$$

PMZ171>174-220000-
FEDERATED STATES OF MICRONESIA-
  
CITY           SKY/WX    TMP DP  RH WIND       PRES   REMARKS
YAP AIRPORT    CLOUDY    84  77  79 E9        29.87R HX  94           
CHUUK AP       PTSUNNY   86  79  79 NE8       29.83S HX  99           
POHNPEI AP     CLOUDY    88  77  70 SE12      29.84S HX 100           
POHNPEI WSO    CLOUDY    84  75  74 E9        29.87S HX  92           
KOSRAE AP      PTSUNNY   86  77  74 NE23      29.81S HX  97           

$$

PMZ181-220000-
REPUBLIC OF THE MARSHALL ISLANDS-
  
CITY           SKY/WX    TMP DP  RH WIND       PRES   REMARKS
KWAJALEIN AP   MOSUNNY   86  77  74 E18       29.86F HX  97           
MAJURO AP      PTSUNNY   84  77  79 NE18      29.88R HX  94           
MAJURO WSO     PTSUNNY   84  77  79 E7        29.86  HX  94           

$$